Fryeburg, ME

4:05 AM EST on February 13, 2016 (GMT -0500)
Eastern Slopes Regional

Weather History for KIZG - August, 2012

Change the Weather History Date:

Tuesday, August 7, 2012

  Actual Average Record
Temperature  
Mean Temperature 66 °F -  
Max Temperature 84 °F - - ()
Min Temperature 48 °F - - ()
Cooling Degree Days 1    
Growing Degree Days 16 (Base 50)    
Moisture  
Dew Point 53 °F    
Average Humidity 85    
Maximum Humidity 100    
Minimum Humidity 34    
Precipitation  
Precipitation 0.00 in - - ()
Sea Level Pressure  
Sea Level Pressure 30.00 in    
Wind  
Wind Speed 1 mph (South)    
Max Wind Speed 8 mph    
Max Gust Speed -    
Visibility 4 miles    
Events Fog    
T = Trace of Precipitation, MM = Missing Value Source: NWS Daily Summary

Daily Weather History Graph

Daily Weather History Graph

Search for Another Location

Airport or City:

Trip Planner

Search our weather history database for the weather conditions in past years. The results will help you decide how hot, cold, wet, or windy it might be!

Date:

Astronomy

Aug. 07, 2012 Rise Set
Actual Time 5:39 AM EDT 7:59 PM EDT
Civil Twilight 5:06 AM EDT 8:31 PM EDT
Nautical Twilight 4:26 AM EDT 9:10 PM EDT
Astronomical Twilight 3:42 AM EDT 9:55 PM EDT
Moon 10:21 PM EDT (8/7) 11:39 AM EDT (8/7)
Length of Visible Light 15h 24m
Length of Day
14h 20m
Waning Gibbous, 70% of the Moon is Illuminated
Aug 7
Waning Gibbous
Aug 9
Last Quarter
Aug 17
New
Aug 24
First Quarter
Aug 31
Full

Hourly Weather History & Observations

Time (EDT) Temp. Heat Index Dew Point Humidity Pressure Visibility Wind Dir Wind Speed Gust Speed Precip Events Conditions
12:24 AM 53.6 °F - 53.6 °F 100% 30.01 in 1.0 mi Calm Calm - N/A   Mist
12:54 AM 54.0 °F - 53.1 °F 97% 30.00 in 9.0 mi Calm Calm - N/A   Clear
1:13 AM 53.6 °F - 53.6 °F 100% 30.00 in 1.8 mi Calm Calm - N/A   Partly Cloudy
1:16 AM 53.6 °F - 53.6 °F 100% 30.00 in 1.0 mi Calm Calm - N/A   Mist
1:22 AM 53.6 °F - 53.6 °F 100% 30.00 in 1.5 mi Calm Calm - N/A   Partly Cloudy
1:24 AM 53.6 °F - 53.6 °F 100% 30.01 in 4.0 mi Calm Calm - N/A   Partly Cloudy
1:49 AM 53.6 °F - 53.6 °F 100% 30.01 in 1.8 mi Calm Calm - N/A   Partly Cloudy
1:54 AM 53.1 °F - 52.0 °F 96% 30.01 in 1.0 mi Calm Calm - N/A   Mist
2:03 AM 51.8 °F - 51.8 °F 100% 30.01 in 1.5 mi Calm Calm - N/A   Partly Cloudy
2:06 AM 51.8 °F - 51.8 °F 100% 30.01 in 4.0 mi Calm Calm - N/A   Partly Cloudy
2:28 AM 53.6 °F - 51.8 °F 94% 30.01 in 1.5 mi Calm Calm - N/A   Partly Cloudy
2:30 AM 51.8 °F - 51.8 °F 100% 30.01 in 0.8 mi Calm Calm - N/A   Mist
2:54 AM 51.1 °F - 51.1 °F 100% 30.01 in 1.2 mi Calm Calm - N/A   Scattered Clouds
3:04 AM 51.8 °F - 51.8 °F 100% 30.01 in 2.0 mi Calm Calm - N/A   Partly Cloudy
3:09 AM 51.8 °F - 51.8 °F 100% 30.01 in 1.0 mi Calm Calm - N/A   Mist
3:16 AM 51.8 °F - 50.0 °F 94% 30.00 in 0.5 mi Calm Calm - N/A Fog Fog
3:28 AM 51.8 °F - 51.8 °F 100% 30.01 in 1.5 mi Calm Calm - N/A   Partly Cloudy
3:30 AM 51.8 °F - 51.8 °F 100% 30.01 in 4.0 mi Calm Calm - N/A   Partly Cloudy
3:35 AM 51.8 °F - 51.8 °F 100% 30.01 in 1.2 mi Calm Calm - N/A   Partly Cloudy
3:37 AM 51.8 °F - 51.8 °F 100% 30.01 in 0.8 mi Calm Calm - N/A   Mist
3:46 AM 51.8 °F - 50.0 °F 94% 30.01 in 0.2 mi Calm Calm - N/A Fog Fog
3:54 AM 50.0 °F - 50.0 °F 100% 30.01 in 0.5 mi Calm Calm - N/A Fog Fog
4:15 AM 51.8 °F - 50.0 °F 94% 30.01 in 1.5 mi Calm Calm - N/A   Scattered Clouds
4:26 AM 50.0 °F - 50.0 °F 100% 30.01 in 3.0 mi Calm Calm - N/A   Scattered Clouds
4:40 AM 50.0 °F - 50.0 °F 100% 30.01 in 1.5 mi Calm Calm - N/A   Partly Cloudy
4:42 AM 50.0 °F - 50.0 °F 100% 30.01 in 0.8 mi Calm Calm - N/A   Mist
4:54 AM 50.0 °F - 48.9 °F 96% 30.01 in 0.5 mi Calm Calm - N/A Fog Fog
5:12 AM 50.0 °F - 48.2 °F 94% 30.02 in 0.2 mi Calm Calm - N/A Fog Fog
5:23 AM 50.0 °F - 50.0 °F 100% 30.02 in 0.5 mi Calm Calm - N/A Fog Fog
5:36 AM 48.2 °F - 48.2 °F 100% 30.02 in 0.2 mi Calm Calm - N/A Fog Fog
5:54 AM 48.9 °F - 48.0 °F 97% 30.02 in 0.2 mi Calm Calm - N/A Fog Fog
6:19 AM 50.0 °F - 50.0 °F 100% 30.02 in 1.2 mi Calm Calm - N/A   Scattered Clouds
6:21 AM 51.8 °F - 51.8 °F 100% 30.02 in 4.0 mi Calm Calm - N/A   Scattered Clouds
6:54 AM 54.0 °F - 53.1 °F 97% 30.03 in 10.0 mi Calm Calm - N/A   Clear
7:54 AM 62.1 °F - 57.0 °F 84% 30.03 in 10.0 mi Calm Calm - N/A   Clear
8:54 AM 69.1 °F - 57.9 °F 68% 30.03 in 10.0 mi Calm Calm - N/A   Clear
9:54 AM 73.0 °F - 57.0 °F 57% 30.02 in 10.0 mi Calm Calm - N/A   Clear
10:54 AM 75.9 °F - 55.9 °F 50% 30.01 in 10.0 mi Variable 3.5 mph - N/A   Clear
11:54 AM 78.1 °F - 55.9 °F 46% 30.00 in 10.0 mi Variable 4.6 mph - N/A   Partly Cloudy
12:54 PM 80.1 °F 80.1 °F 55.0 °F 42% 29.98 in 10.0 mi Variable 4.6 mph - N/A   Clear
1:54 PM 82.9 °F - 52.0 °F 34% 29.96 in 10.0 mi Variable 4.6 mph - N/A   Clear
2:54 PM 84.9 °F 83.3 °F 54.0 °F 34% 29.94 in 10.0 mi South 4.6 mph - N/A   Clear
3:54 PM 84.0 °F 82.9 °F 55.0 °F 37% 29.94 in 10.0 mi South 5.8 mph - N/A   Clear
4:54 PM 82.9 °F 82.0 °F 55.0 °F 38% 29.94 in 10.0 mi Variable 6.9 mph - N/A   Clear
5:54 PM 81.0 °F 81.0 °F 57.0 °F 44% 29.93 in 10.0 mi South 8.1 mph - N/A   Clear
6:54 PM 79.0 °F - 57.0 °F 47% 29.93 in 10.0 mi SSW 3.5 mph - N/A   Clear
8:54 PM 70.0 °F - 62.1 °F 76% 29.95 in 10.0 mi South 4.6 mph - N/A   Clear
9:54 PM 69.1 °F - 61.0 °F 75% 29.96 in 10.0 mi South 3.5 mph - N/A   Clear
11:54 PM 62.1 °F - 61.0 °F 96% 29.97 in 10.0 mi Calm Calm - N/A   Clear